Regional Weather Roundup
Issued by NWS Charleston, SC

Current Version | Previous Version | Graphics & Text | Print | Product List | Glossary On
Versions: 1 2 3 4 5 6 7 8 9 10 11 12 13 14 15 16 17 18 19 20 21 22 23 24 25 26 27 28 29 30 31 32 33 34 35 36 37 38 39 40 41 42 43 44 45 46 47 48 49 50
000
ASUS42 KCHS 162312
RWRCHS

REGIONAL WEATHER ROUNDUP
NATIONAL WEATHER SERVICE CHARLESTON SC
600 PM EST MON JAN 16 2017

NOTE: "FAIR" INDICATES FEW OR NO CLOUDS BELOW 12,000 FEET WITH NO
SIGNIFICANT WEATHER AND/OR OBSTRUCTIONS TO VISIBILITY.

NOT ALL STATIONS ARE QUALITY CONTROLLED. USE DATA WITH CAUTION...
ESPECIALLY DEWPOINT OBSERVATIONS.

SCZ027-030-031-034>040-042>050-170000-
...SOUTHEAST SOUTH CAROLINA...

CITY           SKY/WX    TMP DP  RH WIND       PRES   REMARKS
N CHARLESTON   CLOUDY    61  57  87 NE6       30.33R
WATERFRONT PRK   N/A     58  57  96 NE6       30.31S
MOUNT PLEASANT CLOUDY    61  57  88 CALM      30.33R
JOHNS ISLAND   CLOUDY    59  57  94 NE7       30.33R
PINOPOLIS        N/A     55  55 100 VRB3      30.25R
MONCKS CORNER  CLOUDY    57  55  94 CALM      30.34R FOG
SUMMERVILLE    CLOUDY   N/A N/A N/A CALM      30.34S
BEAUFORT MCAS  CLOUDY    63  59  87 E5        30.30S
BEAUFORT ARPT  CLOUDY    61  59  94 E7        30.30S
HILTON HEAD IS CLOUDY    59  57  94 E7        30.31S
WALTERBORO     CLOUDY    63 N/A N/A NE7       30.32S
ALLENDALE      FAIR      64  57  77 CALM      30.29S

...SOUTHERN MIDLANDS AND PEE DEE...

CITY           SKY/WX    TMP DP  RH WIND       PRES   REMARKS
GEORGETOWN     CLOUDY    55  52  88 NE5       30.35S
KINGSTREE      CLOUDY    54  52  94 N3        30.34F
ORANGEBURG     CLOUDY    57  54  89 E7        30.32F
BARNWELL       FAIR      61  57  88 E6        30.30F
AIKEN          CLOUDY    54  54 100 E6        30.34S FOG
MANNING        CLOUDY    55  52  88 CALM      30.35R
COLUMBIA       CLOUDY    56  52  86 E8        30.33R
SUMTER         CLOUDY    53  51  92 E5        30.32S
FLORENCE       CLOUDY    54  52  93 SE3       30.35F FOG
MYRTLE BEACH   CLOUDY    59  50  72 NE8       30.36F
N MYRTLE BEACH MOCLDY    56  51  84 NE3       30.34F

$$

GAZ063-065-086>088-099>101-113>116-118-119-134>141-150-170000-
...SOUTHEAST GEORGIA...

CITY           SKY/WX    TMP DP  RH WIND       PRES   REMARKS
SAVANNAH ARPT  PTCLDY    63  58  83 E13       30.29S
HUNTER AAF     MOCLDY    59  59 100 E12       30.28R FOG
FORT STEWART   CLEAR     65  58  78 E7        30.26R
STATESBORO     MOCLDY    70  61  73 SE3       30.27S HAZE
SYLVANIA       MOCLDY   N/A N/A N/A SE9       30.28S
CLAXTON        FAIR     N/A N/A N/A CALM      30.27R

...CSRA...CENTRAL AND FAR SOUTHEAST GEORGIA...

CITY           SKY/WX    TMP DP  RH WIND       PRES   REMARKS
THOMSON        MOCLDY    63  59  88 CALM      30.33R
AUGUSTA-BUSH   PTCLDY    62  55  77 NE7       30.28R
AUGUSTA-DANIEL CLEAR     61  54  77 NE9       30.29S
SWAINSBORO     MOCLDY    70  52  52 SE3       30.26R
VIDALIA        CLOUDY    72  61  68 CALM      30.26R
EASTMAN        FAIR      67  45  44 CALM      30.26S
HAZLEHURST     FAIR      69  57  66 CALM      30.25R
ALMA           MOCLDY    69  55  60 CALM      30.24S
WAYCROSS       MOCLDY    71  60  69 CALM      30.25R
JESUP          FAIR      68  59  73 SE8       30.27R
BAXLEY         FAIR      70  61  73 CALM      30.25S
BRUNSWICK      MOCLDY    63  63 100 NE8       30.29S
SAINT SIMONS   FOG       60  60 100 NE10      30.28S VSB 1/2

$$

SCZ027-028-034-036>038-045-046-048>050-GAZ119-141-170000-
...LAKE AND SUPPLEMENTAL COASTAL OBSERVATIONS...

STATION/POSITION TIME  TEMP    WIND        PRES    WAVE   SWELL
                       AIR SEA DIR/SP/G            HT/PER HT/PER/DIR
                 (UTC) (F)     (DEG/KT/KT) (MB)    (FT/S) (FT/S/D)
WINYAH BAY       2145   56      40/  6     1027.0
LAKE MURRAY      2220   55      80/  4/  6 1026.4
ACE BASIN NERRS  2145   65      50/  3     1026.0
FORT PULASKI     2248   57 55   80/ 13/ 15 1026.3R
SAPELO ISLAND    2200   63      80/  9     1025.0

$$

ANZ835-935-AMZ111-154-330-350-352-354-370-450-454-472-170000-
...C-MAN AND BUOY OBSERVATIONS...

STATION/POSITION TIME  TEMP    WIND        PRES    WAVE   SWELL
                       AIR SEA DIR/SP/G            HT/PER HT/PER/DIR
                 (UTC) (F)     (DEG/KT/KT) (MB)    (FT/S) (FT/S/D)
BUOY 41004       2250   67 71   20/ 10/ 12 1025.8R   4/ 6   3/ 50/ 6
BUOY 41008       2250   60 60   70/ 12/ 14 1025.2S   3/10   2/150/10
FOLLY BEACH CMAN 2300   56      50/ 13/ 15 1027.1R
CAPERS NEARSHORE 2208   54 54   40/ 10/ 14 1026.9R
FRIPP NEARSHORE  2208   56 56   60/ 12/ 14 1026.1R


STATION/POSITION TIME  TEMP    WIND        PRES    WAVE   SWELL
                       AIR SEA DIR/SP/G            HT/PER HT/PER/DIR
                 (UTC) (F)     (DEG/KT/KT) (MB)    (FT/S) (FT/S/D)
5E ST. MARYS GA  2230      62                N/A     2/11   2/100/11
FRYING PAN BUOY  2250   65 70   40/ 14/ 16 1027.0R   4/ 6   2/100/ 9
BUOY 41025       2250   55 73   10/ 14/ 16 1027.7R   4/ 7   2/ 70/ 7
CAPE LOOKOUT NC  2300   50      10/  5/  7 1028.1S
BUOY 41002       2150   69 72  120/  6/  8 1026.9    4/ 8   3/ 20/ 8
BUOY 41010       NOT AVBL
ST AUGUSTINE FL  2300   68 67   90/ 12/ 13 1025.3R


$$




USA.gov is the U.S. government's official web portal to all federal, state and local government web resources and services.